{"data":{"norad_id":62769,"intl_designator":"2025-015M","name":"STARLINK-33569","alt_names":[],"object_type":"PAYLOAD","status":"ACTIVE","operator":null,"country":"US","launch_date":"2025-01-21","launch_site_code":"AFWTR","launch_vehicle":null,"mission":null,"orbit_class":"UNKNOWN","rcs_meters":null,"size_class":null,"mass_kg":null,"dimensions":null,"purposes":["comms"],"wikipedia_slug":null,"has_3d_model":false,"image_url":null,"decayed_at":null,"tle_current":{"epoch":"2026-05-24T18:35:37.763232Z","epoch_age_seconds":94779,"freshness":"FRESH","line1":"1 62769U 25015M   26144.77474263  .00022056  00000+0  75450-3 0  9998","line2":"2 62769  53.1616 328.7988 0000754  60.2664 299.8412 15.30203430 76132","mean_motion":15.3020343,"eccentricity":7.54e-5,"inclination_deg":53.1616,"raan_deg":328.7988,"arg_perigee_deg":60.2664,"mean_anomaly_deg":299.8412,"bstar":0.0007545,"rev_number":7613,"period_min":94.105134766297,"perigee_km":474.68808610288,"apogee_km":475.72157005055,"semimajor_km":6853.3418280767,"source":"CELESTRAK","updated_at":"2026-05-25T13:38:19.745403Z"}}}